Location: Unspecified
(0.0000°N, 0.0000°E)
Time: 18:10:59
(UTC+00:00)

Vanguard 1 - Pass Details

Date: 05 October 2020
Orbit: 650 x 3833 km, 34.3° (Epoch: 26 October)

Event Time Altitude Azimuth Distance (km) Brightness Sun altitude
Rises 03:14:45 0° 313° (NW) 3,130 - -38.2°
Reaches altitude 10° 03:16:45 10° 315° (NW) 2,352 - -37.7°
Maximum altitude 03:22:05 69° 39° (NE) 1,121 - -36.4°
Exits shadow 03:23:03 61° 84° (E) 1,246 10.6 -36.2°
Drops below altitude 10° 03:31:16 10° 121° (ESE) 3,952 13.8 -34.1°
Sets 03:35:37 0° 123° (ESE) 5,468 14.7 -33.1°
